Home > Weather > Bergen > Past weeks

Flag for Norway Past Weather in Bergen, Norway — Yesterday and Last 2 Weeks

Now
57 °F

Sprinkles. Overcast.


Feels Like: 57 °F
Forecast: 50 / 62 °F
Wind: 1 mph from Southeast

Location: Bergen / Florida

Current Time: Aug 27, 2016 at 3:38:50 PM

Latest Report: Aug 27, 2016 at 2:00 PM


Visibility: 6 mi

Pressure: 30.13 "Hg

Humidity: 80%

Dew Point: 51 °F

Location of BergenLocation

Past Weather in Bergen — Graph

°F

Bergen Temperature Yesterday

Maximum temperature yesterday: 59 °F (at 8:00 AM)
Minimum temperature yesterday: 54 °F (at 10:00 PM)
Average temperature yesterday: 57 °F

High & Low Weather Summary for the Past Weeks

 TemperatureHumidityPressure
High73 °F (Aug 22, 1:00 PM)90% (Aug 13, 2:00 AM)30.29 "Hg (Aug 13, 2:00 AM)
Low50 °F (Aug 20, 5:00 AM)40% (Aug 22, 1:00 PM)29.62 "Hg (Aug 26, 11:00 AM)
Average59 °F80%29.99 "Hg
* Reported Aug 12 2:00 PM — Aug 27 2:00 PM, Bergen, Weather by CustomWeather, © 2016

Note: Actual official high and low records may vary slightly from our data, if they occured in-between our weather recording intervals... More about our weather records

Advertising

Bergen Weather History for the Previous 24 Hours

Scroll right to see more
 ConditionsComfort  
Time TempWeatherWind HumidityBarometerVisibility
2:00 PM
Sat, Aug 27
57 °FSprinkles. Overcast.1 mph80%30.13 "Hg6 mi
1:00 PM60 °FCool.2 mph69%30.11 "HgN/A
12:00 PM61 °FCool.2 mph72%30.09 "HgN/A
11:00 AM58 °FOvercast.2 mph82%30.08 "Hg19 mi
10:00 AM56 °FCool.3 mph84%30.07 "HgN/A
9:00 AM56 °FCool.1 mph86%30.05 "HgN/A
8:00 AM55 °FSprinkles. Low clouds.1 mph86%30.03 "Hg16 mi
7:00 AM55 °FCool.1 mph84%30.01 "HgN/A
6:00 AM54 °FCool.2 mph84%29.99 "HgN/A
5:00 AM54 °FCool.2 mph85%29.97 "HgN/A
4:00 AM55 °FCool.2 mph84%29.96 "HgN/A
3:00 AM55 °FCool.5 mph83%29.94 "HgN/A
2:00 AM55 °FCool.5 mph84%29.92 "HgN/A
1:00 AM56 °FCool.2 mph81%29.90 "HgN/A
12:00 AM56 °FCool.5 mph86%29.88 "HgN/A
11:00 PM
Fri, Aug 26
54 °FLow clouds.3 mph87%29.86 "Hg9 mi
10:00 PM54 °FCool.3 mph86%29.84 "HgN/A
9:00 PM54 °FCool.2 mph85%29.83 "HgN/A
8:00 PM54 °FCool.3 mph84%29.82 "HgN/A
6:00 PM57 °FCool.3 mph80%29.81 "HgN/A
5:00 PM57 °FLight rain. Low clouds.5 mph80%29.80 "Hg19 mi
4:00 PM57 °FCool.6 mph84%29.78 "HgN/A
3:00 PM56 °FCool.5 mph86%29.76 "HgN/A
Weather by CustomWeather, © 2016

See weather overviewHow to use our weather pages